Chester, SC

10:35 PM EDT on October 18, 2019 (GMT -0400)
Chester

Weather History for KDCM - August, 2019

Change the Weather History Date:

Saturday, August 3, 2019

  Actual Average (WUND) Record (WUND)
Temperature  
Mean Temperature 78 °F -  
Max Temperature 87 °F - - (-1)
Min Temperature 68 °F - - (-1)
Cooling Degree Days 12    
Growing Degree Days 28 (Base 50)    
Moisture  
Dew Point 69 °F    
Average Humidity 79    
Maximum Humidity 100    
Minimum Humidity 46    
Precipitation  
Precipitation 0.00 in - - ()
Sea Level Pressure  
Sea Level Pressure 30.02 in    
Wind  
Wind Speed 2 mph (NNE)    
Max Wind Speed 10 mph    
Max Gust Speed 17 mph    
Visibility 10 miles    
Events Rain , Thunderstorm    
Averages and records for this station are not official NWS values.
T = Trace of Precipitation, MM = Missing Value Source: NWS Daily Summary

Daily Weather History Graph

Daily Weather History Graph

Search for Another Location

Airport or City:

Astronomy

Aug. 03, 2019 Rise Set
Actual Time 6:35 AM EDT 8:25 PM EDT
Civil Twilight 6:08 AM EDT 8:53 PM EDT
Nautical Twilight 5:35 AM EDT 9:26 PM EDT
Astronomical Twilight 4:59 AM EDT 10:01 PM EDT
Moon 9:22 AM EDT (8/3) 10:37 PM EDT (8/3)
Length of Visible Light 14h 44m
Length of Day
13h 49m
Waxing Crescent, 10% of the Moon is Illuminated
Aug 3
Waxing Crescent
Aug 7
First Quarter
Aug 15
Full
Aug 23
Last Quarter
Aug 30
New

Hourly Weather History & Observations

Time (EDT) Temp. Heat Index Dew Point Humidity Pressure Visibility Wind Dir Wind Speed Gust Speed Precip Events Conditions
12:15 AM 71.6 °F - 68.0 °F 88% 30.08 in 10.0 mi Calm Calm - N/A   Overcast
12:35 AM 71.6 °F - 68.0 °F 88% 30.08 in 10.0 mi Calm Calm - N/A   Scattered Clouds
1:15 AM 71.6 °F - 68.0 °F 88% 30.08 in 10.0 mi Calm Calm - N/A   Scattered Clouds
1:35 AM 71.6 °F - 68.0 °F 88% 30.07 in 10.0 mi NW 3.5 mph - N/A   Scattered Clouds
1:55 AM 71.6 °F - 68.0 °F 88% 30.07 in 10.0 mi NW 4.6 mph - N/A   Scattered Clouds
2:15 AM 71.6 °F - 68.0 °F 88% 30.06 in 10.0 mi Calm Calm - N/A   Clear
2:35 AM 71.6 °F - 69.8 °F 94% 30.06 in 10.0 mi Calm Calm - N/A   Clear
2:55 AM 69.8 °F - 69.8 °F 100% 30.05 in 10.0 mi Calm Calm - N/A   Clear
3:15 AM 69.8 °F - 69.8 °F 100% 30.05 in 10.0 mi Calm Calm - N/A   Clear
3:35 AM 69.8 °F - 69.8 °F 100% 30.04 in 10.0 mi Calm Calm - N/A   Scattered Clouds
3:55 AM 69.8 °F - 69.8 °F 100% 30.03 in 10.0 mi Calm Calm - N/A   Clear
4:15 AM 69.8 °F - 69.8 °F 100% 30.04 in 10.0 mi Calm Calm - N/A   Clear
4:35 AM 69.8 °F - 69.8 °F 100% 30.03 in 10.0 mi Calm Calm - N/A   Clear
4:55 AM 68.0 °F - 68.0 °F 100% 30.03 in 10.0 mi Calm Calm - N/A   Clear
5:15 AM 68.0 °F - 68.0 °F 100% 30.03 in 10.0 mi Calm Calm - N/A   Clear
5:35 AM 68.0 °F - 68.0 °F 100% 30.03 in 10.0 mi Calm Calm - N/A   Clear
6:15 AM 69.8 °F - 69.8 °F 100% 30.03 in 10.0 mi Calm Calm - N/A   Clear
6:35 AM 68.0 °F - 68.0 °F 100% 30.03 in 10.0 mi Calm Calm - N/A   Clear
6:55 AM 68.0 °F - 68.0 °F 100% 30.04 in 10.0 mi NNE 3.5 mph - N/A   Clear
7:15 AM 68.0 °F - 68.0 °F 100% 30.04 in 10.0 mi Calm Calm - N/A   Clear
7:35 AM 68.0 °F - 68.0 °F 100% 30.04 in 10.0 mi NE 3.5 mph - N/A   Clear
7:55 AM 69.8 °F - 69.8 °F 100% 30.04 in 10.0 mi Calm Calm - N/A   Clear
8:15 AM 69.8 °F - 69.8 °F 100% 30.04 in 10.0 mi NNE 3.5 mph - N/A   Clear
8:35 AM 71.6 °F - 71.6 °F 100% 30.05 in 10.0 mi NE 3.5 mph - N/A   Clear
8:55 AM 71.6 °F - 71.6 °F 100% 30.05 in 10.0 mi NNE 3.5 mph - N/A   Clear
9:15 AM 73.4 °F - 71.6 °F 94% 30.05 in 10.0 mi NNE 3.5 mph - N/A   Clear
9:35 AM 77.0 °F - 71.6 °F 83% 30.05 in 10.0 mi NNE 3.5 mph - N/A   Clear
9:55 AM 78.8 °F - 68.0 °F 69% 30.05 in 10.0 mi NE 4.6 mph - N/A   Clear
10:15 AM 78.8 °F - 68.0 °F 69% 30.05 in 10.0 mi East 4.6 mph - N/A   Scattered Clouds
10:35 AM 80.6 °F 83.2 °F 68.0 °F 65% 30.05 in 10.0 mi NE 4.6 mph - N/A   Mostly Cloudy
11:15 AM 80.6 °F 83.2 °F 68.0 °F 65% 30.05 in 7.0 mi NNW 5.8 mph - N/A   Mostly Cloudy
11:35 AM 80.6 °F 83.2 °F 68.0 °F 65% 30.05 in 10.0 mi North 3.5 mph - N/A   Mostly Cloudy
11:55 AM 82.4 °F 84.6 °F 66.2 °F 58% 30.04 in 10.0 mi North 3.5 mph - N/A   Mostly Cloudy
12:35 PM 84.2 °F 85.6 °F 64.4 °F 51% 30.03 in 10.0 mi North 3.5 mph - N/A Thunderstorm Mostly Cloudy
12:55 PM 82.4 °F 83.9 °F 64.4 °F 54% 30.03 in 10.0 mi NNE 4.6 mph - N/A   Mostly Cloudy
1:15 PM 84.2 °F 85.6 °F 64.4 °F 51% 30.02 in 10.0 mi NNE 5.8 mph - N/A   Mostly Cloudy
1:35 PM 86.0 °F 88.2 °F 66.2 °F 51% 30.02 in 10.0 mi NE 8.1 mph - N/A   Mostly Cloudy
1:55 PM 84.2 °F 85.6 °F 64.4 °F 51% 30.01 in 10.0 mi NE 6.9 mph - N/A   Scattered Clouds
2:15 PM 87.8 °F 89.4 °F 64.4 °F 46% 30.00 in 10.0 mi East 8.1 mph 17.3 mph N/A   Clear
2:35 PM 84.2 °F 85.0 °F 62.6 °F 48% 30.00 in 10.0 mi East 4.6 mph - N/A   Mostly Cloudy
2:55 PM 86.0 °F 88.2 °F 66.2 °F 51% 29.99 in 10.0 mi SSE 10.4 mph - N/A   Mostly Cloudy
3:15 PM 82.4 °F 85.4 °F 68.0 °F 62% 29.98 in 10.0 mi SSE 10.4 mph - N/A   Mostly Cloudy
3:35 PM 80.6 °F 83.2 °F 68.0 °F 65% 29.99 in 10.0 mi Calm Calm - N/A   Overcast
3:55 PM 80.6 °F 83.2 °F 68.0 °F 65% 29.98 in 10.0 mi Calm Calm - N/A Rain Light Rain
4:15 PM 80.6 °F 83.2 °F 68.0 °F 65% 29.98 in 10.0 mi Calm Calm - N/A   Scattered Clouds
4:35 PM 80.6 °F 83.9 °F 69.8 °F 70% 29.97 in 10.0 mi South 3.5 mph - N/A Rain Light Rain
4:55 PM 80.6 °F 83.9 °F 69.8 °F 70% 29.97 in 10.0 mi Calm Calm - N/A   Clear
5:15 PM 82.4 °F 86.3 °F 69.8 °F 66% 29.97 in 10.0 mi Calm Calm - N/A   Clear
5:35 PM 84.2 °F 87.3 °F 68.0 °F 58% 29.96 in 10.0 mi Calm Calm - N/A   Clear
5:55 PM 86.0 °F 89.4 °F 68.0 °F 55% 29.96 in 10.0 mi WSW 3.5 mph - N/A   Clear
6:15 PM 86.0 °F 88.2 °F 66.2 °F 51% 29.96 in 10.0 mi West 3.5 mph - N/A   Clear
6:35 PM 82.4 °F 85.4 °F 68.0 °F 62% 29.95 in 10.0 mi Calm Calm - N/A   Clear
6:55 PM 82.4 °F 85.4 °F 68.0 °F 62% 29.95 in 10.0 mi WSW 3.5 mph - N/A   Clear
7:15 PM 82.4 °F 86.3 °F 69.8 °F 66% 29.95 in 10.0 mi Calm Calm - N/A Thunderstorm Clear
7:35 PM 80.6 °F 83.9 °F 69.8 °F 70% 29.96 in 10.0 mi Calm Calm - N/A Thunderstorm Thunderstorm
7:55 PM 80.6 °F 83.9 °F 69.8 °F 70% 29.97 in 10.0 mi Calm Calm - N/A   Mostly Cloudy
8:15 PM 78.8 °F - 69.8 °F 74% 29.97 in 10.0 mi Calm Calm - N/A Thunderstorm Scattered Clouds
8:35 PM 78.8 °F - 69.8 °F 74% 29.98 in 10.0 mi Calm Calm - N/A   Clear
8:55 PM 78.8 °F - 69.8 °F 74% 29.98 in 10.0 mi Calm Calm - N/A   Clear
9:15 PM 78.8 °F - 69.8 °F 74% 29.98 in 10.0 mi Calm Calm - N/A   Clear
9:35 PM 77.0 °F - 71.6 °F 83% 29.99 in 10.0 mi SSE 3.5 mph - N/A   Clear
9:55 PM 77.0 °F - 69.8 °F 78% 30.00 in 10.0 mi Calm Calm - N/A   Clear
10:15 PM 77.0 °F - 69.8 °F 78% 30.00 in 10.0 mi Calm Calm - N/A   Scattered Clouds
10:35 PM 77.0 °F - 71.6 °F 83% 30.00 in 10.0 mi Calm Calm - N/A   Scattered Clouds
10:55 PM 75.2 °F - 71.6 °F 89% 30.00 in 10.0 mi Calm Calm - N/A   Overcast
11:15 PM 75.2 °F - 71.6 °F 89% 30.00 in 10.0 mi Calm Calm - N/A   Mostly Cloudy
11:35 PM 73.4 °F - 73.4 °F 100% 30.01 in 10.0 mi West 3.5 mph - N/A   Scattered Clouds
11:55 PM 73.4 °F - 73.4 °F 100% 30.01 in 10.0 mi Calm Calm - N/A   Clear